Location: Alma
(38.7220°N, 88.9090°W)
Time: 08:37:47
(UTC-06:00)

Altair - Visible Passes

Search period start: 22 November 2019 00:00
Search period end: 02 December 2019 00:00
Orbit: 1502 x 1682 km, 47.2° (Epoch: 21 November)

Date Brightness Start Highest point End Pass type
(mag) Time Alt. Az. Time Alt. Az. Time Alt. Az.
22 Nov 8.2 02:51:32 43° NE 02:51:32 43° NE 02:57:17 10° ENE visible
22 Nov 7.8 04:49:34 31° WNW 04:53:49 50° N 05:02:50 10° ENE visible
23 Nov 8.6 02:27:49 32° NE 02:27:49 32° NE 02:32:06 10° ENE visible
23 Nov 7.8 04:25:51 40° NW 04:28:33 50° N 04:37:32 10° ENE visible
24 Nov 9.1 02:04:05 23° ENE 02:04:05 23° ENE 02:06:56 10° ENE visible
24 Nov 7.7 04:02:07 48° NNW 04:03:18 51° N 04:12:16 10° ENE visible
24 Nov 7.7 06:00:08 10° WNW 06:09:13 64° NNE 06:18:34 10° ESE visible
25 Nov 9.4 01:40:21 16° ENE 01:40:21 16° ENE 01:41:45 10° ENE visible
25 Nov 7.7 03:38:22 51° N 03:38:22 51° N 03:47:00 10° ENE visible
25 Nov 7.7 05:36:24 16° WNW 05:44:00 62° NNE 05:53:17 10° E visible
26 Nov 8.0 03:14:38 46° NNE 03:14:38 46° NNE 03:21:45 10° ENE visible
26 Nov 7.7 05:12:39 23° NW 05:18:46 59° NNE 05:27:59 10° E visible
27 Nov 8.4 02:50:53 38° NE 02:50:53 38° NE 02:56:31 10° ENE visible
27 Nov 7.7 04:48:55 31° NW 04:53:32 57° NNE 05:02:41 10° E visible
28 Nov 8.8 02:27:09 29° NE 02:27:09 29° NE 02:31:17 10° ENE visible
28 Nov 7.7 04:25:11 40° NW 04:28:18 56° NNE 04:37:24 10° E visible
29 Nov 9.2 02:03:26 21° ENE 02:03:26 21° ENE 02:06:03 10° ENE visible
29 Nov 7.7 04:01:27 49° NNW 04:03:03 54° NNE 04:12:06 10° E visible
29 Nov 7.5 05:59:29 12° WNW 06:08:18 82° SW 06:17:43 10° SE visible
30 Nov 9.5 01:39:43 14° ENE 01:39:43 14° ENE 01:40:51 10° ENE visible
30 Nov 7.7 03:37:45 53° N 03:37:48 53° N 03:46:48 10° E visible
30 Nov 7.4 05:35:46 18° WNW 05:43:09 87° SSW 05:52:33 10° SE visible
01 Dec 8.0 03:14:04 48° NE 03:14:04 48° NE 03:21:31 10° E visible
01 Dec 7.4 05:12:06 26° WNW 05:17:59 89° NNE 05:27:22 10° ESE visible
